TimeMDT,TemperatureF,Dew PointF,Humidity,Sea Level PressureIn,VisibilityMPH,Wind Direction,Wind SpeedMPH,Gust SpeedMPH,PrecipitationIn,Events,Conditions,WindDirDegrees,DateUTC
12:15 AM,59.0,37.4,45,29.71,10.0,Calm,Calm,-,N/A,,Mostly Cloudy,0,2013-09-23 06:15:00
12:35 AM,59.0,39.2,48,29.72,8.0,ENE,3.5,-,N/A,,Overcast,70,2013-09-23 06:35:00
12:55 AM,57.2,39.2,51,29.73,10.0,Calm,Calm,-,N/A,,Overcast,0,2013-09-23 06:55:00
1:15 AM,57.2,39.2,51,29.74,10.0,NNW,4.6,-,N/A,,Overcast,330,2013-09-23 07:15:00
1:35 AM,55.4,39.2,54,29.74,10.0,NNE,3.5,-,N/A,,Overcast,20,2013-09-23 07:35:00
1:55 AM,55.4,39.2,54,29.75,10.0,NW,5.8,-,N/A,,Overcast,320,2013-09-23 07:55:00
2:15 AM,55.4,39.2,54,29.75,10.0,North,8.1,-,N/A,,Overcast,10,2013-09-23 08:15:00
2:35 AM,55.4,39.2,54,29.75,10.0,ENE,4.6,-,N/A,,Mostly Cloudy,70,2013-09-23 08:35:00
2:55 AM,53.6,39.2,58,29.76,10.0,NNW,4.6,-,N/A,,Mostly Cloudy,330,2013-09-23 08:55:00
3:15 AM,53.6,39.2,58,29.76,10.0,Calm,Calm,-,N/A,,Overcast,0,2013-09-23 09:15:00
3:35 AM,53.6,39.2,58,29.76,10.0,NE,4.6,-,N/A,,Overcast,40,2013-09-23 09:35:00
3:55 AM,51.8,39.2,62,29.76,10.0,NNE,6.9,-,N/A,,Mostly Cloudy,30,2013-09-23 09:55:00
4:15 AM,51.8,39.2,62,29.77,10.0,NNE,6.9,-,N/A,,Clear,30,2013-09-23 10:15:00
4:35 AM,48.2,39.2,71,29.78,10.0,NE,6.9,-,N/A,,Clear,40,2013-09-23 10:35:00
4:55 AM,48.2,39.2,71,29.79,10.0,NE,4.6,-,N/A,,Clear,50,2013-09-23 10:55:00
5:15 AM,48.2,39.2,71,29.79,10.0,ENE,8.1,-,N/A,,Clear,60,2013-09-23 11:15:00
5:35 AM,48.2,39.2,71,29.80,10.0,ESE,3.5,-,N/A,,Clear,110,2013-09-23 11:35:00
5:55 AM,48.2,39.2,71,29.81,10.0,NNE,5.8,-,N/A,,Clear,20,2013-09-23 11:55:00
6:15 AM,46.4,39.2,76,29.81,10.0,NE,3.5,-,N/A,,Clear,50,2013-09-23 12:15:00
6:35 AM,46.4,39.2,76,29.82,10.0,NNE,4.6,-,N/A,,Partly Cloudy,30,2013-09-23 12:35:00
6:55 AM,46.4,39.2,76,29.83,10.0,SW,3.5,-,N/A,,Scattered Clouds,220,2013-09-23 12:55:00
7:15 AM,46.4,39.2,76,29.83,10.0,ENE,5.8,-,N/A,,Partly Cloudy,60,2013-09-23 13:15:00
7:35 AM,44.6,39.2,81,29.84,10.0,North,4.6,-,N/A,,Clear,350,2013-09-23 13:35:00
7:55 AM,46.4,39.2,76,29.85,10.0,SW,3.5,-,N/A,,Clear,230,2013-09-23 13:55:00
8:15 AM,48.2,41.0,76,29.85,10.0,SSE,4.6,-,N/A,,Clear,160,2013-09-23 14:15:00
8:35 AM,53.6,41.0,62,29.87,10.0,Calm,Calm,-,N/A,,Clear,0,2013-09-23 14:35:00
8:55 AM,55.4,37.4,51,29.87,10.0,WSW,4.6,-,N/A,,Clear,240,2013-09-23 14:55:00
9:15 AM,57.2,37.4,48,29.88,10.0,WNW,5.8,-,N/A,,Clear,290,2013-09-23 15:15:00
9:35 AM,57.2,35.6,44,29.89,10.0,West,11.5,21.9,N/A,,Clear,260,2013-09-23 15:35:00
9:55 AM,57.2,33.8,41,29.89,10.0,West,15.0,23.0,N/A,,Clear,260,2013-09-23 15:55:00
10:15 AM,59.0,33.8,39,29.90,10.0,West,15.0,24.2,N/A,,Clear,260,2013-09-23 16:15:00
10:35 AM,59.0,32.0,36,29.89,10.0,WSW,15.0,26.5,N/A,,Mostly Cloudy,250,2013-09-23 16:35:00
10:55 AM,60.8,32.0,34,29.90,10.0,West,13.8,24.2,N/A,,Partly Cloudy,260,2013-09-23 16:55:00
11:15 AM,60.8,33.8,36,29.90,10.0,West,17.3,23.0,N/A,,Scattered Clouds,270,2013-09-23 17:15:00
11:35 AM,62.6,33.8,34,29.90,10.0,WSW,12.7,21.9,N/A,,Scattered Clouds,250,2013-09-23 17:35:00
11:55 AM,62.6,32.0,32,29.90,10.0,West,17.3,25.3,N/A,,Clear,270,2013-09-23 17:55:00
12:15 PM,62.6,32.0,32,29.90,10.0,West,16.1,26.5,N/A,,Scattered Clouds,270,2013-09-23 18:15:00
12:55 PM,64.4,30.2,28,29.89,10.0,WSW,13.8,26.5,N/A,,Overcast,250,2013-09-23 18:55:00
1:15 PM,64.4,30.2,28,29.89,10.0,West,18.4,24.2,N/A,,Overcast,270,2013-09-23 19:15:00
1:35 PM,64.4,30.2,28,29.88,10.0,West,20.7,28.8,N/A,,Scattered Clouds,270,2013-09-23 19:35:00
1:55 PM,64.4,30.2,28,29.88,10.0,West,15.0,24.2,N/A,,Clear,260,2013-09-23 19:55:00
2:15 PM,64.4,30.2,28,29.88,10.0,WSW,15.0,26.5,N/A,,Clear,250,2013-09-23 20:15:00
2:35 PM,64.4,30.2,28,29.88,10.0,WSW,20.7,28.8,N/A,,Clear,250,2013-09-23 20:35:00
2:55 PM,64.4,30.2,28,29.88,10.0,WSW,20.7,27.6,N/A,,Clear,250,2013-09-23 20:55:00
3:15 PM,64.4,30.2,28,29.88,10.0,WSW,17.3,33.4,N/A,,Clear,250,2013-09-23 21:15:00
3:55 PM,64.4,30.2,28,29.88,10.0,WSW,16.1,26.5,N/A,,Clear,250,2013-09-23 21:55:00
4:15 PM,64.4,30.2,28,29.89,10.0,WSW,15.0,24.2,N/A,,Clear,250,2013-09-23 22:15:00
4:35 PM,64.4,30.2,28,29.89,10.0,WSW,15.0,24.2,N/A,,Clear,240,2013-09-23 22:35:00
4:55 PM,64.4,30.2,28,29.89,10.0,WSW,16.1,26.5,N/A,,Clear,250,2013-09-23 22:55:00
5:15 PM,64.4,28.4,26,29.90,10.0,WSW,9.2,24.2,N/A,,Clear,240,2013-09-23 23:15:00
5:35 PM,64.4,28.4,26,29.90,10.0,West,12.7,27.6,N/A,,Clear,270,2013-09-23 23:35:00
5:55 PM,64.4,28.4,26,29.90,10.0,West,15.0,28.8,N/A,,Clear,260,2013-09-23 23:55:00
6:35 PM,62.6,28.4,27,29.91,10.0,WSW,18.4,26.5,N/A,,Clear,250,2013-09-24 00:35:00
6:55 PM,62.6,28.4,27,29.92,10.0,West,11.5,26.5,N/A,,Clear,260,2013-09-24 00:55:00
7:15 PM,60.8,28.4,29,29.92,10.0,West,10.4,27.6,N/A,,Clear,260,2013-09-24 01:15:00
7:35 PM,60.8,28.4,29,29.93,10.0,West,19.6,27.6,N/A,,Clear,260,2013-09-24 01:35:00
7:55 PM,60.8,28.4,29,29.93,10.0,WSW,17.3,26.5,N/A,,Clear,250,2013-09-24 01:55:00
8:15 PM,60.8,28.4,29,29.94,10.0,West,12.7,33.4,N/A,,Clear,260,2013-09-24 02:15:00
8:35 PM,60.8,28.4,29,29.96,10.0,West,13.8,28.8,N/A,,Clear,270,2013-09-24 02:35:00
8:55 PM,60.8,28.4,29,29.97,10.0,West,19.6,31.1,N/A,,Clear,260,2013-09-24 02:55:00
9:15 PM,60.8,28.4,29,29.98,10.0,West,15.0,29.9,N/A,,Clear,260,2013-09-24 03:15:00
9:35 PM,59.0,28.4,31,29.98,10.0,WSW,13.8,26.5,N/A,,Clear,250,2013-09-24 03:35:00
9:55 PM,59.0,30.2,34,29.98,10.0,West,15.0,27.6,N/A,,Clear,270,2013-09-24 03:55:00
10:15 PM,59.0,30.2,34,29.98,10.0,West,15.0,26.5,N/A,,Clear,260,2013-09-24 04:15:00
10:35 PM,59.0,30.2,34,29.98,10.0,West,12.7,26.5,N/A,,Clear,270,2013-09-24 04:35:00
10:55 PM,57.2,30.2,36,29.99,10.0,West,13.8,21.9,N/A,,Clear,260,2013-09-24 04:55:00
11:15 PM,57.2,30.2,36,29.99,10.0,WSW,15.0,23.0,N/A,,Clear,250,2013-09-24 05:15:00
11:35 PM,57.2,30.2,36,29.99,10.0,WSW,8.1,18.4,N/A,,Clear,240,2013-09-24 05:35:00
11:55 PM,57.2,30.2,36,29.99,10.0,West,6.9,-,N/A,,Clear,280,2013-09-24 05:55:00